EW4351 Weather Reports


time (UTC)temp
C
wind
direction
speed
KPH
gust
KPH
rain 1hr
cm
rain 24hr
cm
rain mn
cm
humidity
%
barometer
mb
20260507132725 11 266 0.0 0.0 0.00 1.78 0.33 82 1006.3
20260507131136 11 267 0.0 0.0 0.00 1.78 0.33 85 1006.0
20260507125557 11 241 0.0 0.0 0.00 1.78 0.33 88 1006.1
20260507124026 10 217 0.0 0.0 0.00 1.78 0.33 90 1005.7
20260507122503 9 121 0.0 0.0 0.00 1.78 0.33 92 1005.6
20260507113737 8 300 0.0 0.0 0.00 1.78 0.33 93 1006.1
20260507112219 8 300 0.0 0.0 0.00 1.78 0.33 93 1006.5
20260507110702 8 300 0.0 0.0 0.00 1.78 0.33 93 1006.2
20260507105203 8 300 0.0 0.0 0.00 1.78 0.33 93 1006.3
20260507103656 7 300 0.0 0.0 0.00 1.78 0.33 93 1005.9
20260507102208 7 205 0.0 0.0 0.00 1.78 0.33 93 1005.6
20260507100627 8 205 0.0 0.0 0.00 1.78 0.33 93 1005.1
20260507095140 8 275 0.0 0.0 0.00 1.78 0.33 93 1005.2
20260507093552 8 275 0.0 0.0 0.00 1.78 0.33 93 1004.9
20260507092011 8 275 0.0 1.6 0.00 1.78 0.33 93 1005.4
20260507084857 8 274 0.0 1.6 0.00 1.78 0.33 94 1005.3
20260507083433 8 202 0.0 0.0 0.00 1.78 0.33 94 1004.9
20260507082005 8 242 0.0 0.0 0.00 1.78 0.33 94 1004.8
20260507080537 8 242 0.0 0.0 0.00 1.78 0.33 94 1004.8
20260507075110 9 263 0.0 0.0 0.00 1.78 0.33 93 1004.9
20260507073554 9 328 0.0 0.0 0.00 1.78 0.33 93 1004.7
20260507064751 10 209 0.0 0.0 0.00 1.75 0.30 94 1004.4
20260507063212 10 209 0.0 0.0 0.00 1.75 0.30 93 1004.5
20260507061710 10 285 0.0 0.0 0.10 1.75 0.30 94 1004.3
20260507060207 10 295 0.0 0.0 0.46 1.73 0.30 93 1003.7
20260507054618 10 217 0.0 1.6 0.69 1.57 0.15 94 1005.1
20260507051508 10 175 0.0 1.6 0.00 1.45 0.00 93 1004.0
20260507045940 11 179 0.0 8.0 0.00 1.45 0.00 94 1004.2
20260507044435 11 189 0.0 4.8 0.00 1.47 0.00 93 1004.3
20260507041249 11 157 1.6 8.0 0.00 1.47 0.00 93 1004.2
20260507035717 11 212 3.2 11.3 0.00 1.47 1.45 93 1004.5
20260507034255 11 209 4.8 14.5 0.00 1.47 1.45 93 1004.7
20260507032725 11 178 4.8 12.9 0.00 1.47 1.45 93 1004.6
20260507031236 11 185 4.8 16.1 0.00 1.47 1.45 93 1004.7
20260507025744 11 200 6.4 11.3 0.00 1.42 1.45 93 1005.1
20260507024245 12 188 4.8 14.5 0.00 1.42 1.45 93 1005.5
20260507022724 12 178 6.4 14.5 0.15 1.40 1.45 93 1005.7
20260507015522 12 175 4.8 16.1 0.30 1.32 1.32 93 1005.8
20260507014048 12 183 4.8 16.1 0.46 1.30 1.30 93 1006.1
20260507012543 12 163 4.8 16.1 1.02 1.09 1.14 93 1006.5
20260507011004 12 165 3.2 11.3 0.33 0.91 0.94 93 1006.7
20260507003842 12 173 1.6 9.7 0.43 0.66 0.69 92 1007.3
20260507002406 12 172 1.6 8.0 0.38 0.61 0.61 92 1007.3
20260507000908 12 186 4.8 14.5 0.33 0.48 0.48 92 1007.5
20260506235418 12 180 4.8 14.5 0.33 0.41 0.43 92 1007.6
20260506233932 12 202 3.2 8.0 0.13 0.33 0.33 92 1007.6
20260506232344 12 178 4.8 12.9 0.13 0.25 0.25 92 1007.7
20260506230836 12 176 3.2 11.3 0.00 0.23 0.25 92 1008.0
20260506225305 12 181 3.2 8.0 0.00 0.23 0.23 92 1007.9
20260506223814 12 184 0.0 6.4 0.15 0.23 0.23 92 1008.2
20260506222233 12 184 3.2 9.7 0.10 0.15 0.20 91 1008.0
20260506220803 12 195 4.8 12.9 0.33 0.15 0.15 92 1008.6
20260506215214 12 198 4.8 11.3 0.33 0.10 0.10 91 1008.9
20260506212124 12 185 0.0 6.4 0.00 0.03 0.03 90 1009.2
20260506210621 12 186 1.6 8.0 0.00 0.03 0.03 89 1009.4
20260506205058 12 188 3.2 11.3 0.00 0.03 0.03 87 1009.5
20260506203535 13 182 3.2 20.9 0.00 0.03 0.03 86 1009.1
20260506202009 13 170 8.0 19.3 0.00 0.03 0.03 86 1009.1
20260506194853 13 178 6.4 14.5 0.00 0.03 0.03 85 1008.7
20260506193332 13 188 1.6 12.9 0.00 0.03 0.03 84 1009.1
20260506191747 13 167 1.6 19.3 0.00 0.03 0.03 84 1009.2
20260506190303 13 163 3.2 14.5 0.00 0.03 0.03 84 1009.4
20260506184839 13 171 4.8 16.1 0.00 0.03 0.03 85 1009.3
20260506183413 13 157 3.2 12.9 0.00 0.03 0.03 84 1009.5
20260506181922 13 187 0.0 12.9 0.00 0.03 0.03 84 1009.5
20260506180349 14 200 0.0 9.7 0.00 0.03 0.03 83 1009.6
20260506173340 15 198 1.6 3.2 0.00 0.03 0.03 83 1010.0
20260506171830 15 188 1.6 14.5 0.00 0.03 0.03 82 1010.1
20260506164607 15 171 1.6 19.3 0.00 0.03 0.03 82 1010.3
20260506163143 15 196 3.2 17.7 0.00 0.03 0.03 83 1010.7
20260506161624 15 198 8.0 20.9 0.00 0.03 0.03 82 1010.8
20260506160058 16 175 4.8 19.3 0.00 0.03 0.03 83 1010.8
20260506154559 15 188 1.6 0.0 0.00 0.03 0.03 84 1010.7
20260506153046 15 163 0.0 3.2 0.00 0.03 0.03 84 1010.5
20260506145901 13 161 4.8 14.5 0.00 0.03 0.03 87 1011.0
20260506144345 13 166 6.4 14.5 0.00 0.03 0.03 88 1011.5
20260506141208 13 161 0.0 0.0 0.00 0.03 0.03 88 1011.5
20260506135720 13 178 0.0 0.0 0.00 0.03 0.03 88 1011.4